Torna al catalogo

KUIPER-00617

AttivoComunicazioniLEO
NORAD 69776·PAYLOAD·🇺🇸 United States

Lanciato Jul 2, 2026 da Cape Canaveral Space Force Station

Loading…

Prossimi Passaggi (prossime 24 ore)

TLE

AggiornatoSource: CelesTrak SupGP

Epoca: Sep 14, 2026, 21:41 UTC

1 69776C 26151P   26257.90391204  .00002456  00000+0  32184-3 0  2574
2 69776  51.8989 248.9443 0000903 169.5043  75.5227 14.79882882    17

Traccia KUIPER-00617 in tempo reale con AllMySat

Download on the App Store